IW5EFR Vecchia di Pontedera IT current weather conditions

sailwx.info

Wind from 097 at 0 knots gusting 5

Air temperature 11.1° C
Dewpoint 7.4° C

Last reported at 2016-Dec-04 17:54 UTC.
Time now 2016-Dec-04 18:27 UTC

Location: N 43°37' E 010°38'.
View on Google Maps.

See reports from other nearby stations

  
Tides and Currents Weather Stations Pressure Air Temp Water Temp Dewpoint Dewpoint Depression Visibility Wind Speed Wind Dir Waves Ship Positions
date/time (UTC)wind fromknots sea level pressurealtimeterstation pressurevisibilityair tempwater tempwave heightnotes
2016-Dec-04 17:54 097 0 gusting 5 11.1
2016-Dec-04 17:49 097 2 10.6
2016-Dec-04 17:44 096 10.6
2016-Dec-04 17:39 096 10.6
2016-Dec-04 17:34 096 10.6
2016-Dec-04 17:29 096 11.1
2016-Dec-04 17:24 096 11.1
2016-Dec-04 17:19 096 11.1
2016-Dec-04 17:14 096 11.1
2016-Dec-04 17:09 096 11.1
2016-Dec-04 17:04 096 11.1
2016-Dec-04 16:59 096 11.1
2016-Dec-04 16:54 096 11.7
2016-Dec-04 16:49 096 11.7
2016-Dec-04 16:44 096 1 gusting 2 11.7
2016-Dec-04 16:39 096 11.7
2016-Dec-04 16:34 096 12.2
2016-Dec-04 16:29 096 12.2
2016-Dec-04 16:24 096 12.2
2016-Dec-04 16:19 096 12.8
2016-Dec-04 16:14 096 12.8
2016-Dec-04 16:09 096 0 gusting 4 12.8
2016-Dec-04 16:04 096 2 gusting 4 12.8
2016-Dec-04 15:59 096 0 gusting 6 12.8
2016-Dec-04 15:54 096 1 gusting 6 13.3
2016-Dec-04 15:49 096 0 gusting 5 13.3
2016-Dec-04 15:44 096 1 gusting 5 13.3
2016-Dec-04 15:39 096 1 gusting 5 13.3
2016-Dec-04 15:34 096 1 gusting 5 13.9
2016-Dec-04 15:29 096 4 gusting 4 13.9
2016-Dec-04 15:24 096 2 gusting 4 13.9
2016-Dec-04 15:19 096 13.9
2016-Dec-04 15:14 096 13.9
2016-Dec-04 15:09 097 1 gusting 5 14.4
2016-Dec-04 15:04 097 14.4
2016-Dec-04 14:59 096 2 gusting 2 14.4
2016-Dec-04 14:54 096 0 gusting 2 14.4
2016-Dec-04 14:49 097 14.4
2016-Dec-04 14:44 097 0 gusting 4 14.4
2016-Dec-04 14:39 097 4 gusting 5 14.4
2016-Dec-04 14:34 097 1 gusting 5 15.0
2016-Dec-04 14:29 097 15.0
2016-Dec-04 14:24 097 1 gusting 6 15.0
2016-Dec-04 14:19 097 5 gusting 7 15.0
2016-Dec-04 14:14 097 1 gusting 7 15.0
2016-Dec-04 14:09 097 2 gusting 6 15.0
2016-Dec-04 14:04 094 6 gusting 6 15.0
2016-Dec-04 13:59 092 6 gusting 9 15.0
2016-Dec-04 13:54 092 2 gusting 5 15.0
2016-Dec-04 13:49 092 15.0
2016-Dec-04 13:44 091 0 gusting 5 15.0
2016-Dec-04 13:39 088 15.0
2016-Dec-04 13:34 088 1 gusting 8 15.0
2016-Dec-04 13:29 086 6 gusting 4 15.0
2016-Dec-04 13:24 084 15.0
2016-Dec-04 13:19 084 1 gusting 5 15.0
2016-Dec-04 13:14 085 0 gusting 5 15.0
2016-Dec-04 13:09 085 0 gusting 7 15.0
2016-Dec-04 13:04 085 15.0
2016-Dec-04 12:59 085 1 gusting 5 15.0
2016-Dec-04 12:54 084 0 gusting 5 15.0
2016-Dec-04 12:49 098 1 gusting 6 15.0
2016-Dec-04 12:44 101 15.0
2016-Dec-04 12:39 101 15.0
2016-Dec-04 12:34 101 2 gusting 8 15.0
2016-Dec-04 12:29 101 5 gusting 6 15.0
2016-Dec-04 12:24 098 1 gusting 6 15.0
2016-Dec-04 12:19 098 0 gusting 9 15.0
2016-Dec-04 12:14 098 4 gusting 9 15.0
2016-Dec-04 12:09 101 7 gusting 9 15.0
2016-Dec-04 12:04 101 2 gusting 9 15.0
2016-Dec-04 11:59 101 1 gusting 7 14.4
2016-Dec-04 11:54 102 4 gusting 7 14.4
2016-Dec-04 11:49 105 14.4
2016-Dec-04 11:44 105 14.4
2016-Dec-04 11:39 105 4 gusting 9 14.4
2016-Dec-04 11:34 104 6 gusting 9 14.4
2016-Dec-04 11:29 106 4 gusting 6 14.4
2016-Dec-04 11:24 044 6 gusting 6 14.4
2016-Dec-04 11:19 029 3 gusting 6 14.4
2016-Dec-04 11:14 020 1 gusting 6 13.9
2016-Dec-04 11:09 020 13.9
2016-Dec-04 11:04 020 3 gusting 4 13.9
2016-Dec-04 10:59 020 13.3
2016-Dec-04 10:54 020 13.3
2016-Dec-04 10:49 020 3 gusting 5 12.8
2016-Dec-04 10:44 020 5 gusting 5 12.8
2016-Dec-04 10:39 020 3 gusting 3 12.2
2016-Dec-04 10:34 020 1 gusting 3 12.2
2016-Dec-04 10:29 020 1 gusting 3 12.2
2016-Dec-04 10:24 020 2 gusting 3 12.2
2016-Dec-04 10:19 020 2 gusting 3 12.2
2016-Dec-04 10:14 020 1 gusting 3 11.7
2016-Dec-04 10:09 020 1 gusting 3 11.7
2016-Dec-04 10:04 020 1 gusting 3 11.7
2016-Dec-04 09:59 020 3 gusting 2 11.7
2016-Dec-04 09:54 020 11.7
2016-Dec-04 09:49 020 1 gusting 0 11.7
2016-Dec-04 09:44 020 11.7
2016-Dec-04 09:39 020 11.1
2016-Dec-04 09:34 020 11.1
2016-Dec-04 09:29 020 10.6
2016-Dec-04 09:23 020 10.0
2016-Dec-04 09:13 020 9.4
2016-Dec-04 09:08 020 9.4
2016-Dec-04 09:03 020 8.9
2016-Dec-04 08:58 020 0 8.9
2016-Dec-04 08:50 020 8.3
2016-Dec-04 08:46 020 7.8
2016-Dec-04 08:36 020 7.2
2016-Dec-04 08:23 020 6.1
2016-Dec-04 08:18 020 5.6
2016-Dec-04 08:13 020 6.1
2016-Dec-04 08:08 020 5.6
2016-Dec-04 08:03 020 5.6
2016-Dec-04 07:58 020 5.6
2016-Dec-04 07:53 020 5.6
2016-Dec-04 07:48 020 5.6
2016-Dec-04 07:43 020 5.6
2016-Dec-04 07:38 020 5.6
2016-Dec-04 07:33 020 5.0
2016-Dec-04 07:28 020 5.0
2016-Dec-04 07:23 020 5.0
2016-Dec-04 07:18 020 5.0
2016-Dec-04 07:13 020 5.0
2016-Dec-04 07:08 020 5.0
2016-Dec-04 07:03 020 5.0
2016-Dec-04 06:58 020 5.0
2016-Dec-04 06:53 020 5.0
2016-Dec-04 06:48 020 1 gusting 3 5.0
2016-Dec-04 06:43 020 1 gusting 3 5.0
2016-Dec-04 06:38 020 0 gusting 3 5.0
2016-Dec-04 06:33 020 1 gusting 1 5.0
2016-Dec-04 06:28 020 1 gusting 1 5.0
2016-Dec-04 06:23 020 5.0
2016-Dec-04 06:18 020 5.0
2016-Dec-04 06:13 020 1 gusting 2 5.0
2016-Dec-04 06:08 020 0 gusting 2 5.0
2016-Dec-04 06:03 020 1 4.4
2016-Dec-04 05:58 020 4.4
2016-Dec-04 05:53 020 4.4
2016-Dec-04 05:48 020 4.4
2016-Dec-04 05:43 020 4.4
2016-Dec-04 05:38 020 4.4
2016-Dec-04 05:33 020 3.9
2016-Dec-04 05:28 020 3.9
2016-Dec-04 05:23 020 3.9
2016-Dec-04 05:18 020 3.9
2016-Dec-04 05:13 020 3.9
2016-Dec-04 05:08 020 4.4
2016-Dec-04 05:03 020 4.4
2016-Dec-04 04:58 020 4.4
2016-Dec-04 04:53 020 4.4
2016-Dec-04 04:48 020 4.4
2016-Dec-04 04:43 020 5.0
2016-Dec-04 04:38 020 5.0
2016-Dec-04 04:33 020 5.0
2016-Dec-04 04:28 020 5.0
2016-Dec-04 04:23 020 5.0
2016-Dec-04 04:18 020 4.4
2016-Dec-04 04:13 020 4.4
2016-Dec-04 04:08 020 4.4
2016-Dec-04 04:03 020 4.4
2016-Dec-04 03:58 020 4.4
2016-Dec-04 03:53 020 5.0
2016-Dec-04 03:48 020 5.0
2016-Dec-04 03:43 020 5.0
2016-Dec-04 03:38 020 5.6
2016-Dec-04 03:33 020 5.6
2016-Dec-04 03:28 020 5.6
2016-Dec-04 03:23 020 5.6
2016-Dec-04 03:18 020 0 gusting 2 5.6
2016-Dec-04 03:13 020 0 gusting 2 5.6
2016-Dec-04 03:08 020 2 gusting 2 5.6
2016-Dec-04 03:03 020 0 gusting 1 5.6
2016-Dec-04 02:58 020 1 gusting 1 5.0
2016-Dec-04 02:53 020 5.0
2016-Dec-04 02:48 020 5.0
2016-Dec-04 02:43 020 1 4.4
2016-Dec-04 02:38 020 4.4
2016-Dec-04 02:33 020 4.4
2016-Dec-04 02:28 020 5.0
2016-Dec-04 02:23 020 5.0
2016-Dec-04 02:18 020 5.0
2016-Dec-04 02:13 020 5.0
2016-Dec-04 02:08 020 5.0
2016-Dec-04 02:03 020 5.0
2016-Dec-04 01:58 020 5.0
2016-Dec-04 01:53 020 5.0
2016-Dec-04 01:48 020 5.0
2016-Dec-04 01:43 020 5.0
2016-Dec-04 01:38 020 5.6
2016-Dec-04 01:33 020 5.6
2016-Dec-04 01:28 020 5.6
2016-Dec-04 01:23 020 5.6
2016-Dec-04 01:18 020 5.6
2016-Dec-04 01:13 020 6.1
2016-Dec-04 01:08 020 6.1
2016-Dec-04 01:03 020 6.1
2016-Dec-04 00:58 020 6.1
2016-Dec-04 00:53 020 6.1
2016-Dec-04 00:48 020 6.1
2016-Dec-04 00:43 020 6.1
2016-Dec-04 00:38 020 6.1
2016-Dec-04 00:33 020 6.1
2016-Dec-04 00:28 020 6.1
2016-Dec-04 00:23 020 6.1
2016-Dec-04 00:18 020 6.1
2016-Dec-04 00:13 020 6.1
2016-Dec-04 00:08 020 6.7
2016-Dec-04 00:03 020 6.7
2016-Dec-03 23:59 020 6.7
2016-Dec-03 23:54 020 6.7
2016-Dec-03 23:49 020 6.7
2016-Dec-03 23:44 020 6.7
2016-Dec-03 23:39 020 6.7
2016-Dec-03 23:34 020 6.7
2016-Dec-03 23:29 020 6.7
2016-Dec-03 23:24 020 7.2
2016-Dec-03 23:19 020 7.2
2016-Dec-03 23:14 020 7.2
2016-Dec-03 23:09 020 7.8
2016-Dec-03 23:04 020 7.8
2016-Dec-03 22:59 020 7.8
2016-Dec-03 22:54 020 7.8
2016-Dec-03 22:49 020 7.8
2016-Dec-03 22:44 020 7.8
2016-Dec-03 22:39 020 7.8
2016-Dec-03 22:34 020 7.8
2016-Dec-03 22:29 020 7.8
2016-Dec-03 22:24 020 7.8
2016-Dec-03 22:19 020 7.8
2016-Dec-03 22:14 020 7.8
2016-Dec-03 22:09 020 7.8
2016-Dec-03 22:04 020 8.3
2016-Dec-03 21:59 020 8.3
2016-Dec-03 21:54 020 8.3
2016-Dec-03 21:49 020 8.3
2016-Dec-03 21:44 020 8.3
2016-Dec-03 21:39 020 8.3
2016-Dec-03 21:34 020 8.3
2016-Dec-03 21:29 020 8.3
2016-Dec-03 21:24 020 8.3
2016-Dec-03 21:19 020 8.9
2016-Dec-03 21:14 020 8.9
2016-Dec-03 21:09 020 8.9
2016-Dec-03 21:04 020 8.9
2016-Dec-03 20:59 020 8.9
2016-Dec-03 20:54 020 8.9
2016-Dec-03 20:49 020 9.4
2016-Dec-03 20:44 020 9.4
2016-Dec-03 20:39 020 9.4
2016-Dec-03 20:34 020 9.4
2016-Dec-03 20:29 020 9.4
2016-Dec-03 20:24 020 9.4
2016-Dec-03 20:19 020 10.0
2016-Dec-03 20:14 020 10.0
2016-Dec-03 20:09 020 10.0
2016-Dec-03 20:04 020 10.0
2016-Dec-03 19:59 020 1 10.0
2016-Dec-03 19:54 020 0 gusting 3 10.0
2016-Dec-03 19:49 020 10.0
2016-Dec-03 19:44 020 10.0
2016-Dec-03 19:39 020 10.0
2016-Dec-03 19:34 020 3 gusting 2 10.6
2016-Dec-03 19:29 020 1 gusting 2 10.6
2016-Dec-03 19:24 020 1 gusting 2 10.6
2016-Dec-03 19:19 020 10.6
2016-Dec-03 19:14 020 10.6
2016-Dec-03 19:09 020 10.6
2016-Dec-03 19:04 020 1 gusting 3 10.6
2016-Dec-03 18:59 020 1 gusting 3 10.6
2016-Dec-03 18:54 020 1 10.6
2016-Dec-03 18:49 020 2 10.6
2016-Dec-03 18:44 020 2 10.6
2016-Dec-03 18:39 020 10.6
2016-Dec-03 18:34 020 10.6
2016-Dec-03 18:29 020 10.6
2016-Dec-03 18:24 020 11.1
2016-Dec-03 18:19 020 11.1
2016-Dec-03 18:14 020 11.1
2016-Dec-03 18:08 020 11.1
2016-Dec-03 18:03 020 11.1
2016-Dec-03 17:59 020 11.1
2016-Dec-03 17:54 020 11.7
2016-Dec-03 17:49 020 11.7
2016-Dec-03 17:44 020 11.7
2016-Dec-03 17:39 020 11.7
2016-Dec-03 17:33 020 11.7
2016-Dec-03 17:28 020 11.7
2016-Dec-03 17:23 020 11.7
2016-Dec-03 17:18 020 11.7
2016-Dec-03 17:13 020 11.7
2016-Dec-03 17:08 020 1 11.7
2016-Dec-03 17:03 020 11.7
2016-Dec-03 16:58 020 11.7
2016-Dec-03 16:53 020 11.7
2016-Dec-03 16:48 020 11.7
2016-Dec-03 16:43 020 11.7
2016-Dec-03 16:38 020 11.7
2016-Dec-03 16:33 020 11.7
2016-Dec-03 16:28 020 12.2
2016-Dec-03 16:23 020 12.2
2016-Dec-03 16:18 020 12.2
2016-Dec-03 16:13 020 12.2
2016-Dec-03 16:08 020 12.2
2016-Dec-03 16:03 020 12.2
2016-Dec-03 15:58 020 12.2
2016-Dec-03 15:53 020 12.2
2016-Dec-03 15:48 020 12.2
2016-Dec-03 15:43 020 12.2
2016-Dec-03 15:38 020 12.2
2016-Dec-03 15:33 020 12.8
2016-Dec-03 15:28 020 12.8
2016-Dec-03 15:23 020 12.8
2016-Dec-03 15:18 020 12.8
2016-Dec-03 15:13 020 0 gusting 4 12.8
2016-Dec-03 15:08 020 12.8
2016-Dec-03 15:03 020 12.8
2016-Dec-03 14:58 020 1 gusting 4 12.8
2016-Dec-03 14:53 020 2 gusting 2 12.8
2016-Dec-03 14:48 020 1 gusting 2 12.8
2016-Dec-03 14:43 020 2 gusting 2 12.8
2016-Dec-03 14:38 020 12.8
2016-Dec-03 14:33 020 12.8
2016-Dec-03 14:28 020 13.3
2016-Dec-03 14:23 020 1 gusting 4 13.3
2016-Dec-03 14:20 020 13.3
2016-Dec-03 14:15 020 0 gusting 4 13.3
2016-Dec-03 14:10 020 1 gusting 5 13.3
2016-Dec-03 14:05 020 2 gusting 5 13.3
2016-Dec-03 14:00 020 3 gusting 5 13.3
2016-Dec-03 13:55 020 5 gusting 5 13.3
2016-Dec-03 13:50 020 4 gusting 6 13.3
2016-Dec-03 13:45 020 1 gusting 6 13.3
2016-Dec-03 13:40 020 1 gusting 6 13.3
2016-Dec-03 13:35 021 1 gusting 6 13.3
2016-Dec-03 13:30 021 2 gusting 7 13.3
2016-Dec-03 13:25 022 0 gusting 7 13.3
2016-Dec-03 13:20 021 1 gusting 7 13.3
2016-Dec-03 13:15 025 5 gusting 7 13.3
2016-Dec-03 13:10 027 0 gusting 6 13.3
2016-Dec-03 13:05 029 5 gusting 6 13.3
2016-Dec-03 13:00 029 5 gusting 6 13.3
2016-Dec-03 12:55 029 13.3
2016-Dec-03 12:50 029 13.3
2016-Dec-03 12:45 029 4 gusting 5 13.3
2016-Dec-03 12:40 029 2 gusting 6 13.3
2016-Dec-03 12:35 029 5 gusting 6 13.3
2016-Dec-03 12:30 029 2 gusting 9 13.3
2016-Dec-03 12:25 029 1 gusting 9 13.3
2016-Dec-03 12:20 030 5 gusting 8 13.3
2016-Dec-03 12:15 030 6 gusting 8 13.3
2016-Dec-03 12:10 062 8 gusting 8 13.3
2016-Dec-03 12:05 070 4 gusting 8 13.3
2016-Dec-03 12:00 080 7 gusting 6 13.3
2016-Dec-03 11:55 084 2 gusting 6 13.3
2016-Dec-03 11:50 088 5 gusting 4 13.3
2016-Dec-03 11:45 088 12.8
2016-Dec-03 11:40 090 0 gusting 6 12.8
2016-Dec-03 11:35 090 12.8
2016-Dec-03 11:30 092 12.2
2016-Dec-03 11:25 092 1 gusting 7 12.8
2016-Dec-03 11:20 103 6 gusting 7 12.8
2016-Dec-03 11:15 113 1 gusting 7 12.8
2016-Dec-03 11:10 113 12.8
2016-Dec-03 11:05 113 0 gusting 6 12.8
2016-Dec-03 11:00 114 12.8
2016-Dec-03 10:55 114 0 gusting 9 12.2
2016-Dec-03 10:50 115 6 gusting 9 12.2
2016-Dec-03 10:45 113 9 gusting 9 12.2
2016-Dec-03 10:40 128 3 gusting 4 11.7
2016-Dec-03 10:35 128 2 gusting 4 11.7
2016-Dec-03 10:30 128 2 gusting 2 11.7
2016-Dec-03 10:25 128 0 gusting 2 11.1
2016-Dec-03 10:20 128 11.1
2016-Dec-03 10:15 128 11.1
2016-Dec-03 10:10 128 11.1
2016-Dec-03 10:05 128 11.1
2016-Dec-03 09:59 128 10.6
2016-Dec-03 09:54 128 10.6
2016-Dec-03 09:49 128 10.6
2016-Dec-03 09:44 128 10.0
2016-Dec-03 09:39 128 10.0
2016-Dec-03 09:34 128 2 10.0
2016-Dec-03 09:29 128 10.0
2016-Dec-03 09:24 128 9.4
2016-Dec-03 09:19 128 9.4
2016-Dec-03 09:14 128 9.4
2016-Dec-03 09:09 128 9.4
2016-Dec-03 09:04 128 9.4
2016-Dec-03 08:59 128 1 gusting 3 9.4
2016-Dec-03 08:54 128 9.4
2016-Dec-03 08:49 128 3 gusting 4 9.4
2016-Dec-03 08:44 128 0 gusting 4 8.9
2016-Dec-03 08:39 128 2 gusting 4 8.9
2016-Dec-03 08:34 128 2 gusting 4 8.9
2016-Dec-03 08:29 128 3 gusting 2 8.9
2016-Dec-03 08:24 128 0 gusting 2 8.9
2016-Dec-03 08:19 128 8.9
2016-Dec-03 08:14 128 0 gusting 2 8.9
2016-Dec-03 08:09 128 8.9
2016-Dec-03 08:04 128 1 gusting 3 8.9
2016-Dec-03 07:59 128 2 gusting 2 8.9
2016-Dec-03 07:54 128 1 gusting 2 8.9
2016-Dec-03 07:49 128 2 gusting 1 8.9
2016-Dec-03 07:44 128 1 gusting 1 8.9
2016-Dec-03 07:39 128 8.9
2016-Dec-03 07:34 128 8.3
2016-Dec-03 07:29 128 8.3
2016-Dec-03 07:24 128 8.3
2016-Dec-03 07:19 128 8.3
2016-Dec-03 07:14 128 8.3
2016-Dec-03 07:09 128 8.3
2016-Dec-03 07:04 128 8.3
2016-Dec-03 06:59 128 8.3
2016-Dec-03 06:54 128 8.3
2016-Dec-03 06:49 128 8.3
2016-Dec-03 06:44 128 8.3
2016-Dec-03 06:39 128 8.3
2016-Dec-03 06:34 128 8.3
2016-Dec-03 06:29 128 8.3
2016-Dec-03 06:24 128 8.3
2016-Dec-03 06:19 128 8.3
2016-Dec-03 06:14 128 8.3
2016-Dec-03 06:09 128 8.3
2016-Dec-03 06:04 128 8.3
2016-Dec-03 05:59 128 8.3
2016-Dec-03 05:54 128 8.3
2016-Dec-03 05:49 128 8.3
2016-Dec-03 05:44 128 8.9
2016-Dec-03 05:39 128 8.3
2016-Dec-03 05:34 128 8.9
2016-Dec-03 05:29 128 8.9
2016-Dec-03 05:24 128 8.9
2016-Dec-03 05:19 128 0 gusting 1 8.9
2016-Dec-03 05:14 128 1 gusting 1 8.9
2016-Dec-03 05:09 128 8.9
2016-Dec-03 05:04 128 8.9
2016-Dec-03 04:59 128 8.9
2016-Dec-03 04:54 128 8.9
2016-Dec-03 04:49 128 8.9
2016-Dec-03 04:44 128 2 gusting 3 8.9
2016-Dec-03 04:39 128 2 gusting 2 8.9
2016-Dec-03 04:34 128 8.9
2016-Dec-03 04:29 128 8.9
2016-Dec-03 04:24 128 8.9
2016-Dec-03 04:19 128 8.9
2016-Dec-03 04:14 128 8.9
2016-Dec-03 04:09 128 8.9
2016-Dec-03 04:04 128 8.9
2016-Dec-03 03:59 128 8.9
2016-Dec-03 03:54 128 8.9
2016-Dec-03 03:49 129 2 gusting 5 8.9
2016-Dec-03 03:44 132 0 gusting 5 8.9
2016-Dec-03 03:39 140 1 gusting 4 8.9
2016-Dec-03 03:34 163 1 gusting 4 8.9
2016-Dec-03 03:29 163 2 gusting 3 8.9
2016-Dec-03 03:24 163 0 gusting 3 8.9
2016-Dec-03 03:19 163 8.9
2016-Dec-03 03:14 163 1 8.9
2016-Dec-03 03:09 163 8.9
2016-Dec-03 03:04 163 8.9
2016-Dec-03 02:59 163 0 gusting 2 8.9
2016-Dec-03 02:54 163 8.9
2016-Dec-03 02:49 163 8.9
2016-Dec-03 02:44 163 8.9
2016-Dec-03 02:39 163 8.9
2016-Dec-03 02:34 163 1 gusting 3 9.4
2016-Dec-03 02:29 163 0 gusting 5 9.4
2016-Dec-03 02:24 163 0 gusting 5 9.4
2016-Dec-03 02:19 163 9.4
2016-Dec-03 02:14 164 2 gusting 4 9.4
2016-Dec-03 02:09 165 1 gusting 4 9.4
2016-Dec-03 02:04 165 1 gusting 4 9.4
2016-Dec-03 01:59 165 0 gusting 5 9.4
2016-Dec-03 01:54 165 1 gusting 5 9.4
2016-Dec-03 01:49 165 2 gusting 3 9.4
2016-Dec-03 01:44 165 2 gusting 3 9.4
2016-Dec-03 01:39 165 0 gusting 3 9.4
2016-Dec-03 01:34 165 10.0
2016-Dec-03 01:29 165 10.0
2016-Dec-03 01:24 165 1 gusting 2 10.0
2016-Dec-03 01:19 165 10.0
2016-Dec-03 01:14 165 10.0
2016-Dec-03 01:09 165 10.0
2016-Dec-03 01:04 165 10.0
2016-Dec-03 00:59 165 10.0
2016-Dec-03 00:54 165 10.0
2016-Dec-03 00:49 165 10.0
2016-Dec-03 00:44 165 10.0
2016-Dec-03 00:39 165 0 gusting 3 10.0
2016-Dec-03 00:34 165 0 gusting 3 10.0
2016-Dec-03 00:29 165 10.0
2016-Dec-03 00:24 165 0 gusting 3 10.0
2016-Dec-03 00:19 165 2 gusting 1 10.0
2016-Dec-03 00:14 165 10.0
2016-Dec-03 00:09 165 10.0
2016-Dec-03 00:04 165 0 gusting 3 10.0
2016-Dec-02 23:59 165 10.0
2016-Dec-02 23:54 165 1 gusting 2 10.6
2016-Dec-02 23:49 165 2 10.6
2016-Dec-02 23:44 165 0 10.6
2016-Dec-02 23:39 165 10.6
2016-Dec-02 23:34 165 10.6
2016-Dec-02 23:29 165 10.6
2016-Dec-02 23:24 165 11.1
2016-Dec-02 23:19 165 1 gusting 5 10.6
2016-Dec-02 23:14 165 5 gusting 5 10.6
2016-Dec-02 23:09 165 2 gusting 5 10.6
2016-Dec-02 23:04 165 2 gusting 5 10.6
2016-Dec-02 22:59 165 4 gusting 5 10.6
2016-Dec-02 22:54 165 2 gusting 5 10.6
2016-Dec-02 22:50 165 2 gusting 6 10.6
2016-Dec-02 22:45 165 2 gusting 6 10.6
2016-Dec-02 22:40 165 5 gusting 5 10.6
2016-Dec-02 22:35 165 4 gusting 5 10.6
2016-Dec-02 22:30 165 4 gusting 5 10.6
2016-Dec-02 22:25 165 3 gusting 5 10.6
2016-Dec-02 22:20 165 3 gusting 5 10.6
2016-Dec-02 22:15 165 3 gusting 5 10.6
2016-Dec-02 22:10 165 4 gusting 4 10.6
2016-Dec-02 22:05 165 2 gusting 4 10.6
2016-Dec-02 21:59 165 2 gusting 5 10.6
2016-Dec-02 21:54 165 3 gusting 5 10.6
2016-Dec-02 21:49 165 1 gusting 4 10.6
2016-Dec-02 21:44 165 2 gusting 4 10.6
2016-Dec-02 21:39 165 2 gusting 4 10.6
2016-Dec-02 21:34 165 2 gusting 4 10.6
2016-Dec-02 21:29 165 3 gusting 5 10.6
2016-Dec-02 21:24 165 0 gusting 5 10.6
2016-Dec-02 21:19 165 0 gusting 5 10.6
2016-Dec-02 21:14 165 11.1
2016-Dec-02 21:09 165 3 gusting 4 11.1
2016-Dec-02 21:04 165 1 gusting 4 11.1
2016-Dec-02 20:59 165 0 gusting 7 11.1
2016-Dec-02 20:54 165 3 gusting 7 11.1
2016-Dec-02 20:49 165 4 gusting 7 11.1
2016-Dec-02 20:44 165 4 gusting 7 11.1
2016-Dec-02 20:39 165 3 gusting 3 11.1
2016-Dec-02 20:34 165 3 gusting 3 11.1
2016-Dec-02 20:29 165 11.1
2016-Dec-02 20:24 165 0 gusting 5 11.1
2016-Dec-02 20:19 165 1 gusting 7 11.1
2016-Dec-02 20:14 165 2 gusting 7 11.1
2016-Dec-02 20:09 165 1 gusting 6 11.1
2016-Dec-02 20:04 165 6 gusting 6 11.1
2016-Dec-02 19:59 165 5 gusting 5 11.1
2016-Dec-02 19:54 165 2 gusting 5 11.1
2016-Dec-02 19:49 165 3 gusting 7 11.1
2016-Dec-02 19:44 165 3 gusting 7 11.1
2016-Dec-02 19:39 165 5 gusting 7 11.1
2016-Dec-02 19:34 165 3 gusting 7 11.1
2016-Dec-02 19:29 165 6 gusting 7 11.1
2016-Dec-02 19:24 166 4 gusting 7 11.1
2016-Dec-02 19:19 178 4 gusting 6 11.1
2016-Dec-02 19:14 178 6 gusting 6 11.1
2016-Dec-02 19:09 181 5 gusting 6 11.1
2016-Dec-02 19:04 182 0 gusting 6 11.1
2016-Dec-02 18:59 183 0 gusting 6 11.1
2016-Dec-02 18:54 183 4 gusting 6 11.1
2016-Dec-02 18:49 183 3 gusting 5 11.1
2016-Dec-02 18:44 184 2 gusting 5 11.1
2016-Dec-02 18:39 184 2 gusting 3 11.1
2016-Dec-02 18:34 183 2 gusting 3 11.1
2016-Dec-02 18:29 184 3 gusting 5 11.1
2016-Dec-02 18:24 184 2 gusting 5 11.1
2016-Dec-02 18:19 183 0 gusting 6 11.1
2016-Dec-02 18:14 183 2 gusting 6 11.7
2016-Dec-02 18:09 184 5 gusting 6 11.7
2016-Dec-02 18:04 186 3 gusting 6 11.7